Time,TemperatureF,DewpointF,PressureIn,WindDirection,WindDirectionDegrees,WindSpeedMPH,WindSpeedGustMPH,Humidity,HourlyPrecipIn,Conditions,Clouds,dailyrainin,SoftwareType,DateUTC
2013-01-08 00:00:00,12.6,7.0,30.00,North,0,0.0,0.0,78,0.00,,,0.01,WUHU216HW,2013-01-08 05:00:00,
2013-01-08 00:01:00,12.4,7.1,30.00,North,0,0.0,0.0,79,0.00,,,0.00,WUHU216HW,2013-01-08 05:01:00,
2013-01-08 00:03:00,12.2,6.9,30.00,North,0,0.0,0.0,79,0.00,,,0.00,WUHU216HW,2013-01-08 05:03:00,
2013-01-08 00:08:00,12.2,6.9,30.00,North,0,0.0,0.0,79,0.00,,,0.00,WUHU216HW,2013-01-08 05:08:00,
2013-01-08 00:13:00,12.1,6.8,30.00,North,0,0.0,0.0,79,0.00,,,0.00,WUHU216HW,2013-01-08 05:13:00,
2013-01-08 00:18:00,11.9,6.6,30.00,North,0,0.0,0.0,79,0.00,,,0.00,WUHU216HW,2013-01-08 05:18:00,
2013-01-08 00:23:00,11.9,6.6,30.00,North,0,0.0,0.0,79,0.00,,,0.00,WUHU216HW,2013-01-08 05:23:00,
2013-01-08 00:28:00,11.9,6.6,30.00,North,0,0.0,0.0,79,0.00,,,0.00,WUHU216HW,2013-01-08 05:28:00,
2013-01-08 00:33:00,11.9,6.6,30.00,North,0,0.0,0.0,79,0.00,,,0.00,WUHU216HW,2013-01-08 05:33:00,
2013-01-08 00:38:00,11.7,6.4,30.00,North,0,0.0,0.0,79,0.00,,,0.00,WUHU216HW,2013-01-08 05:38:00,
2013-01-08 00:43:00,11.5,6.2,30.00,North,0,0.0,0.0,79,0.00,,,0.00,WUHU216HW,2013-01-08 05:43:00,
2013-01-08 00:49:00,11.5,6.2,30.00,North,0,0.0,0.0,79,0.00,,,0.00,WUHU216HW,2013-01-08 05:49:00,
2013-01-08 00:54:00,11.3,6.0,29.99,North,0,0.0,0.0,79,0.00,,,0.00,WUHU216HW,2013-01-08 05:54:00,
2013-01-08 00:59:00,11.2,5.9,30.00,North,0,0.0,0.0,79,0.00,,,0.00,WUHU216HW,2013-01-08 05:59:00,
2013-01-08 01:04:00,11.2,5.9,29.99,North,0,0.0,0.0,79,0.00,,,0.00,WUHU216HW,2013-01-08 06:04:00,
2013-01-08 01:09:00,11.0,5.9,29.99,North,0,0.0,0.0,80,0.00,,,0.00,WUHU216HW,2013-01-08 06:09:00,
2013-01-08 01:14:00,11.0,5.9,29.99,North,0,0.0,0.0,80,0.00,,,0.00,WUHU216HW,2013-01-08 06:14:00,
2013-01-08 01:19:00,10.8,5.8,29.99,North,0,0.0,0.0,80,0.00,,,0.00,WUHU216HW,2013-01-08 06:19:00,
2013-01-08 01:24:00,10.6,5.6,29.99,North,0,0.0,0.0,80,0.00,,,0.00,WUHU216HW,2013-01-08 06:24:00,
2013-01-08 01:29:00,10.4,5.4,29.99,North,0,0.0,0.0,80,0.00,,,0.00,WUHU216HW,2013-01-08 06:29:00,
2013-01-08 01:34:00,10.4,5.7,29.99,North,0,0.0,0.0,81,0.00,,,0.00,WUHU216HW,2013-01-08 06:34:00,
2013-01-08 01:39:00,10.4,5.4,29.98,North,0,0.0,0.0,80,0.00,,,0.00,WUHU216HW,2013-01-08 06:39:00,
2013-01-08 01:44:00,10.3,5.2,29.99,North,0,0.0,0.0,80,0.00,,,0.00,WUHU216HW,2013-01-08 06:44:00,
2013-01-08 01:49:00,10.3,5.2,29.98,North,0,0.0,0.0,80,0.00,,,0.00,WUHU216HW,2013-01-08 06:49:00,
2013-01-08 01:54:00,10.1,5.0,29.98,North,0,0.0,0.0,80,0.00,,,0.00,WUHU216HW,2013-01-08 06:54:00,
2013-01-08 01:59:00,10.1,5.0,29.99,North,0,0.0,0.0,80,0.00,,,0.00,WUHU216HW,2013-01-08 06:59:00,
2013-01-08 02:04:00,10.1,5.0,29.99,North,0,0.0,0.0,80,0.00,,,0.00,WUHU216HW,2013-01-08 07:04:00,
2013-01-08 02:09:00,9.9,5.0,29.99,North,0,0.0,0.0,80,0.00,,,0.00,WUHU216HW,2013-01-08 07:09:00,
2013-01-08 02:14:00,9.9,5.0,29.99,North,0,0.0,0.0,80,0.00,,,0.00,WUHU216HW,2013-01-08 07:14:00,
2013-01-08 02:19:00,9.7,4.8,29.99,North,0,0.0,0.0,80,0.00,,,0.00,WUHU216HW,2013-01-08 07:19:00,
2013-01-08 02:25:00,9.7,4.8,29.98,North,0,0.0,0.0,80,0.00,,,0.00,WUHU216HW,2013-01-08 07:25:00,
2013-01-08 02:30:00,9.5,4.6,29.98,North,0,0.0,0.0,80,0.00,,,0.00,WUHU216HW,2013-01-08 07:30:00,
2013-01-08 02:35:00,9.5,4.6,29.98,North,0,0.0,0.0,80,0.00,,,0.00,WUHU216HW,2013-01-08 07:35:00,
2013-01-08 02:40:00,9.4,4.4,29.98,North,0,0.0,0.0,80,0.00,,,0.00,WUHU216HW,2013-01-08 07:40:00,
2013-01-08 02:45:00,9.4,4.4,29.98,North,0,0.0,0.0,80,0.00,,,0.00,WUHU216HW,2013-01-08 07:45:00,
2013-01-08 02:50:00,9.2,4.2,29.98,North,0,0.0,0.0,80,0.00,,,0.00,WUHU216HW,2013-01-08 07:50:00,
2013-01-08 02:55:00,9.2,4.2,29.98,North,0,0.0,0.0,80,0.00,,,0.00,WUHU216HW,2013-01-08 07:55:00,
2013-01-08 03:00:00,9.0,4.2,29.98,North,0,0.0,0.0,80,0.00,,,0.00,WUHU216HW,2013-01-08 08:00:00,
2013-01-08 03:06:00,9.0,4.2,29.97,North,0,0.0,0.0,80,0.00,,,0.00,WUHU216HW,2013-01-08 08:06:00,
2013-01-08 03:11:00,9.0,4.2,29.97,North,0,0.0,0.0,80,0.00,,,0.00,WUHU216HW,2013-01-08 08:11:00,
2013-01-08 03:16:00,9.0,4.2,29.97,North,0,0.0,0.0,80,0.00,,,0.00,WUHU216HW,2013-01-08 08:16:00,
2013-01-08 03:21:00,8.8,4.0,29.97,North,0,0.0,0.0,80,0.00,,,0.00,WUHU216HW,2013-01-08 08:21:00,
2013-01-08 03:26:00,8.8,4.0,29.96,North,0,0.0,0.0,80,0.00,,,0.00,WUHU216HW,2013-01-08 08:26:00,
2013-01-08 03:31:00,8.6,4.1,29.96,North,0,0.0,0.0,81,0.00,,,0.00,WUHU216HW,2013-01-08 08:31:00,
2013-01-08 03:36:00,8.6,4.1,29.96,North,0,0.0,0.0,81,0.00,,,0.00,WUHU216HW,2013-01-08 08:36:00,
2013-01-08 03:41:00,8.6,4.3,29.96,North,0,0.0,0.0,82,0.00,,,0.00,WUHU216HW,2013-01-08 08:41:00,
2013-01-08 03:47:00,8.6,4.1,29.96,North,0,0.0,0.0,81,0.00,,,0.00,WUHU216HW,2013-01-08 08:47:00,
2013-01-08 03:52:00,8.5,3.9,29.95,North,0,0.0,0.0,81,0.00,,,0.00,WUHU216HW,2013-01-08 08:52:00,
2013-01-08 03:57:00,8.3,3.7,29.96,North,0,0.0,0.0,81,0.00,,,0.00,WUHU216HW,2013-01-08 08:57:00,
2013-01-08 04:02:00,8.3,3.7,29.95,North,0,0.0,0.0,81,0.00,,,0.00,WUHU216HW,2013-01-08 09:02:00,
2013-01-08 04:07:00,8.3,3.7,29.95,North,0,0.0,0.0,81,0.00,,,0.00,WUHU216HW,2013-01-08 09:07:00,
2013-01-08 04:12:00,8.3,3.7,29.95,North,0,0.0,0.0,81,0.00,,,0.00,WUHU216HW,2013-01-08 09:12:00,
2013-01-08 04:17:00,8.3,3.7,29.95,North,0,0.0,0.0,81,0.00,,,0.00,WUHU216HW,2013-01-08 09:17:00,
2013-01-08 04:22:00,8.1,3.5,29.94,North,0,0.0,0.0,81,0.00,,,0.00,WUHU216HW,2013-01-08 09:22:00,
2013-01-08 04:28:00,7.9,3.3,29.94,North,0,0.0,0.0,81,0.00,,,0.00,WUHU216HW,2013-01-08 09:28:00,
2013-01-08 04:33:00,7.9,3.3,29.94,North,0,0.0,0.0,81,0.00,,,0.00,WUHU216HW,2013-01-08 09:33:00,
2013-01-08 04:38:00,7.9,3.3,29.94,North,0,0.0,0.0,81,0.00,,,0.00,WUHU216HW,2013-01-08 09:38:00,
2013-01-08 04:43:00,7.7,3.2,29.94,North,0,0.0,0.0,81,0.00,,,0.00,WUHU216HW,2013-01-08 09:43:00,
2013-01-08 04:48:00,7.7,3.2,29.94,North,0,0.0,0.0,81,0.00,,,0.00,WUHU216HW,2013-01-08 09:48:00,
2013-01-08 04:53:00,7.6,3.0,29.93,North,0,0.0,0.0,81,0.00,,,0.00,WUHU216HW,2013-01-08 09:53:00,
2013-01-08 04:58:00,7.6,3.0,29.93,North,0,0.0,0.0,81,0.00,,,0.00,WUHU216HW,2013-01-08 09:58:00,
2013-01-08 05:03:00,7.6,3.0,29.93,North,0,0.0,0.0,81,0.00,,,0.00,WUHU216HW,2013-01-08 10:03:00,
2013-01-08 05:08:00,7.4,2.8,29.93,North,0,0.0,0.0,81,0.00,,,0.00,WUHU216HW,2013-01-08 10:08:00,
2013-01-08 05:13:00,7.4,2.8,29.93,North,0,0.0,0.0,81,0.00,,,0.00,WUHU216HW,2013-01-08 10:13:00,
2013-01-08 05:18:00,7.4,2.8,29.92,North,0,0.0,0.0,81,0.00,,,0.00,WUHU216HW,2013-01-08 10:18:00,
2013-01-08 05:23:00,7.4,2.8,29.92,North,0,0.0,0.0,81,0.00,,,0.00,WUHU216HW,2013-01-08 10:23:00,
2013-01-08 05:28:00,7.4,3.1,29.93,North,0,0.0,0.0,82,0.00,,,0.00,WUHU216HW,2013-01-08 10:28:00,
2013-01-08 05:33:00,7.4,3.1,29.92,North,0,0.0,0.0,82,0.00,,,0.00,WUHU216HW,2013-01-08 10:33:00,
2013-01-08 05:38:00,7.2,2.6,29.93,North,0,0.0,0.0,81,0.00,,,0.00,WUHU216HW,2013-01-08 10:38:00,
2013-01-08 05:43:00,7.2,2.6,29.93,North,0,0.0,0.0,81,0.00,,,0.00,WUHU216HW,2013-01-08 10:43:00,
2013-01-08 05:48:00,7.2,2.9,29.94,North,0,0.0,0.0,82,0.00,,,0.00,WUHU216HW,2013-01-08 10:48:00,
2013-01-08 05:53:00,7.2,2.9,29.93,North,0,0.0,0.0,82,0.00,,,0.00,WUHU216HW,2013-01-08 10:53:00,
2013-01-08 05:58:00,7.2,2.9,29.94,North,0,0.0,0.0,82,0.00,,,0.00,WUHU216HW,2013-01-08 10:58:00,
2013-01-08 06:04:00,7.2,2.9,29.94,North,0,0.0,0.0,82,0.00,,,0.00,WUHU216HW,2013-01-08 11:04:00,
2013-01-08 06:09:00,7.2,2.9,29.94,North,0,0.0,0.0,82,0.00,,,0.00,WUHU216HW,2013-01-08 11:09:00,
2013-01-08 06:14:00,7.0,2.7,29.94,North,0,0.0,0.0,82,0.00,,,0.00,WUHU216HW,2013-01-08 11:14:00,
2013-01-08 06:19:00,7.0,2.7,29.94,North,0,0.0,0.0,82,0.00,,,0.00,WUHU216HW,2013-01-08 11:19:00,
2013-01-08 06:24:00,7.0,2.7,29.94,North,0,0.0,0.0,82,0.00,,,0.00,WUHU216HW,2013-01-08 11:24:00,
2013-01-08 06:29:00,6.8,2.5,29.94,North,0,0.0,0.0,82,0.00,,,0.00,WUHU216HW,2013-01-08 11:29:00,
2013-01-08 06:34:00,6.8,2.5,29.94,North,0,0.0,0.0,82,0.00,,,0.00,WUHU216HW,2013-01-08 11:34:00,
2013-01-08 06:39:00,6.8,2.5,29.94,North,0,0.0,0.0,82,0.00,,,0.00,WUHU216HW,2013-01-08 11:39:00,
2013-01-08 06:44:00,6.8,2.5,29.94,North,0,0.0,0.0,82,0.00,,,0.00,WUHU216HW,2013-01-08 11:44:00,
2013-01-08 06:49:00,6.8,2.5,29.94,North,0,0.0,0.0,82,0.00,,,0.00,WUHU216HW,2013-01-08 11:49:00,
2013-01-08 06:55:00,6.8,2.5,29.95,North,0,0.0,0.0,82,0.00,,,0.00,WUHU216HW,2013-01-08 11:55:00,
2013-01-08 07:00:00,6.8,2.5,29.95,North,0,0.0,0.0,82,0.00,,,0.00,WUHU216HW,2013-01-08 12:00:00,
2013-01-08 07:05:00,6.8,2.5,29.95,North,0,0.0,0.0,82,0.00,,,0.00,WUHU216HW,2013-01-08 12:05:00,
2013-01-08 07:10:00,6.8,2.7,29.95,North,0,0.0,0.0,83,0.00,,,0.00,WUHU216HW,2013-01-08 12:10:00,
2013-01-08 07:15:00,6.8,2.5,29.95,North,0,0.0,0.0,82,0.00,,,0.00,WUHU216HW,2013-01-08 12:15:00,
2013-01-08 07:20:00,6.8,2.5,29.95,North,0,0.0,0.0,82,0.00,,,0.00,WUHU216HW,2013-01-08 12:20:00,
2013-01-08 07:25:00,6.8,2.5,29.95,North,0,0.0,0.0,82,0.00,,,0.00,WUHU216HW,2013-01-08 12:25:00,
2013-01-08 07:30:00,6.8,2.7,29.96,North,0,0.0,0.0,83,0.00,,,0.00,WUHU216HW,2013-01-08 12:30:00,
2013-01-08 07:36:00,6.8,2.7,29.95,North,0,0.0,0.0,83,0.00,,,0.00,WUHU216HW,2013-01-08 12:36:00,
2013-01-08 07:41:00,6.8,2.7,29.96,North,0,0.0,0.0,83,0.00,,,0.00,WUHU216HW,2013-01-08 12:41:00,
2013-01-08 07:46:00,7.0,2.9,29.96,North,0,0.0,0.0,83,0.00,,,0.00,WUHU216HW,2013-01-08 12:46:00,
2013-01-08 07:51:00,7.2,3.1,29.96,North,0,0.0,0.0,83,0.00,,,0.00,WUHU216HW,2013-01-08 12:51:00,
2013-01-08 07:56:00,7.2,2.9,29.96,North,0,0.0,0.0,82,0.00,,,0.00,WUHU216HW,2013-01-08 12:56:00,
2013-01-08 08:01:00,7.6,3.4,29.96,North,0,0.0,0.0,83,0.00,,,0.00,WUHU216HW,2013-01-08 13:01:00,
2013-01-08 08:06:00,7.6,3.4,29.96,North,0,0.0,0.0,83,0.00,,,0.00,WUHU216HW,2013-01-08 13:06:00,
2013-01-08 08:11:00,7.7,3.6,29.96,North,0,0.0,0.0,83,0.00,,,0.00,WUHU216HW,2013-01-08 13:11:00,
2013-01-08 08:17:00,7.9,3.8,29.97,North,0,0.0,0.0,83,0.00,,,0.00,WUHU216HW,2013-01-08 13:17:00,
2013-01-08 08:22:00,8.1,4.0,29.97,North,0,0.0,0.0,83,0.00,,,0.00,WUHU216HW,2013-01-08 13:22:00,
2013-01-08 08:27:00,8.3,4.1,29.97,North,0,0.0,0.0,83,0.00,,,0.00,WUHU216HW,2013-01-08 13:27:00,
2013-01-08 08:32:00,8.6,4.5,29.97,North,0,0.0,0.0,83,0.00,,,0.00,WUHU216HW,2013-01-08 13:32:00,
2013-01-08 08:37:00,9.0,4.9,29.97,North,0,0.0,0.0,83,0.00,,,0.00,WUHU216HW,2013-01-08 13:37:00,
2013-01-08 08:42:00,9.4,5.2,29.97,North,0,0.0,0.0,83,0.00,,,0.00,WUHU216HW,2013-01-08 13:42:00,
2013-01-08 08:47:00,9.7,5.6,29.96,North,0,0.0,0.0,83,0.00,,,0.00,WUHU216HW,2013-01-08 13:47:00,
2013-01-08 08:52:00,10.1,5.9,29.97,North,0,0.0,0.0,83,0.00,,,0.00,WUHU216HW,2013-01-08 13:52:00,
2013-01-08 08:57:00,10.8,6.6,29.97,North,0,0.0,0.0,83,0.00,,,0.00,WUHU216HW,2013-01-08 13:57:00,
2013-01-08 09:02:00,11.5,7.6,29.97,North,0,0.0,0.0,84,0.00,,,0.00,WUHU216HW,2013-01-08 14:02:00,
2013-01-08 09:07:00,12.4,8.5,29.97,North,0,0.0,0.0,84,0.00,,,0.00,WUHU216HW,2013-01-08 14:07:00,
2013-01-08 09:13:00,13.3,9.6,29.97,North,0,0.0,0.0,85,0.00,,,0.00,WUHU216HW,2013-01-08 14:13:00,
2013-01-08 09:18:00,14.6,10.9,29.97,North,0,0.0,0.0,85,0.00,,,0.00,WUHU216HW,2013-01-08 14:18:00,
2013-01-08 09:23:00,15.7,11.9,29.96,North,0,0.0,0.0,85,0.00,,,0.00,WUHU216HW,2013-01-08 14:23:00,
2013-01-08 09:28:00,16.9,13.1,29.96,North,0,0.0,0.0,85,0.00,,,0.00,WUHU216HW,2013-01-08 14:28:00,
2013-01-08 09:33:00,17.1,13.2,29.96,North,0,0.0,0.0,85,0.00,,,0.00,WUHU216HW,2013-01-08 14:33:00,
2013-01-08 09:38:00,19.6,15.5,29.96,North,0,0.0,0.0,84,0.00,,,0.00,WUHU216HW,2013-01-08 14:38:00,
2013-01-08 09:43:00,20.7,16.6,29.96,North,0,0.0,0.0,84,0.00,,,0.00,WUHU216HW,2013-01-08 14:43:00,
2013-01-08 09:48:00,22.0,17.6,29.96,North,0,0.0,0.0,83,0.00,,,0.00,WUHU216HW,2013-01-08 14:48:00,
2013-01-08 09:53:00,22.9,18.2,29.96,North,0,0.0,0.0,82,0.00,,,0.00,WUHU216HW,2013-01-08 14:53:00,
2013-01-08 09:58:00,23.9,19.0,29.96,North,0,0.0,0.0,81,0.00,,,0.00,WUHU216HW,2013-01-08 14:58:00,
2013-01-08 10:03:00,24.8,19.9,29.96,North,0,0.0,0.0,81,0.00,,,0.00,WUHU216HW,2013-01-08 15:03:00,
2013-01-08 10:08:00,25.9,20.3,29.96,North,0,0.0,0.0,79,0.00,,,0.00,WUHU216HW,2013-01-08 15:08:00,
2013-01-08 10:13:00,26.6,21.0,29.96,North,0,0.0,0.0,79,0.00,,,0.00,WUHU216HW,2013-01-08 15:13:00,
2013-01-08 10:18:00,27.5,21.3,29.95,North,0,0.0,0.0,77,0.00,,,0.00,WUHU216HW,2013-01-08 15:18:00,
2013-01-08 10:24:00,28.3,22.0,29.95,North,0,0.0,0.0,77,0.00,,,0.00,WUHU216HW,2013-01-08 15:24:00,
2013-01-08 10:29:00,28.8,22.1,29.95,North,0,0.0,0.0,76,0.00,,,0.00,WUHU216HW,2013-01-08 15:29:00,
2013-01-08 10:34:00,29.3,22.4,29.95,North,0,0.0,0.0,75,0.00,,,0.00,WUHU216HW,2013-01-08 15:34:00,
2013-01-08 10:39:00,29.9,22.9,29.95,North,0,0.0,0.0,75,0.00,,,0.00,WUHU216HW,2013-01-08 15:39:00,
2013-01-08 10:44:00,30.4,23.4,29.95,North,0,0.0,0.0,75,0.00,,,0.00,WUHU216HW,2013-01-08 15:44:00,
2013-01-08 10:49:00,31.0,23.6,29.94,North,0,0.0,0.0,74,0.00,,,0.00,WUHU216HW,2013-01-08 15:49:00,
2013-01-08 10:54:00,31.7,24.0,29.94,North,0,0.0,0.0,73,0.00,,,0.00,WUHU216HW,2013-01-08 15:54:00,
2013-01-08 10:59:00,32.4,24.7,29.94,North,0,0.0,0.0,73,0.00,,,0.00,WUHU216HW,2013-01-08 15:59:00,
2013-01-08 11:04:00,32.8,24.7,29.93,North,0,0.0,0.0,72,0.00,,,0.00,WUHU216HW,2013-01-08 16:04:00,
2013-01-08 11:09:00,33.1,24.7,29.93,North,0,0.0,0.0,71,0.00,,,0.00,WUHU216HW,2013-01-08 16:09:00,
2013-01-08 11:14:00,33.5,24.7,29.93,North,0,0.0,0.0,70,0.00,,,0.00,WUHU216HW,2013-01-08 16:14:00,
2013-01-08 11:19:00,33.7,24.8,29.93,North,0,0.0,0.0,70,0.00,,,0.00,WUHU216HW,2013-01-08 16:19:00,
2013-01-08 11:24:00,33.8,25.0,29.93,North,0,0.0,0.0,70,0.00,,,0.00,WUHU216HW,2013-01-08 16:24:00,
2013-01-08 11:29:00,34.2,25.0,29.92,North,0,0.0,0.0,69,0.00,,,0.00,WUHU216HW,2013-01-08 16:29:00,
2013-01-08 11:34:00,34.6,25.4,29.92,North,0,0.0,0.0,69,0.00,,,0.00,WUHU216HW,2013-01-08 16:34:00,
2013-01-08 11:39:00,35.3,26.5,29.92,North,0,0.0,0.0,70,0.00,,,0.00,WUHU216HW,2013-01-08 16:39:00,
2013-01-08 11:44:00,36.4,27.5,29.92,North,0,0.0,0.0,70,0.00,,,0.00,WUHU216HW,2013-01-08 16:44:00,
2013-01-08 11:49:00,37.3,28.1,29.92,North,0,0.0,0.0,69,0.00,,,0.00,WUHU216HW,2013-01-08 16:49:00,
2013-01-08 11:54:00,38.2,28.5,29.91,North,0,0.0,0.0,68,0.00,,,0.00,WUHU216HW,2013-01-08 16:54:00,
2013-01-08 11:59:00,39.1,29.4,29.91,North,0,0.0,0.0,68,0.00,,,0.00,WUHU216HW,2013-01-08 16:59:00,
2013-01-08 12:04:00,40.0,29.8,29.91,North,0,0.0,0.0,67,0.00,,,0.00,WUHU216HW,2013-01-08 17:04:00,
2013-01-08 12:09:00,40.9,30.7,29.91,North,0,0.0,0.0,67,0.00,,,0.00,WUHU216HW,2013-01-08 17:09:00,
2013-01-08 12:14:00,41.4,31.2,29.91,North,0,0.0,0.0,67,0.00,,,0.00,WUHU216HW,2013-01-08 17:14:00,
2013-01-08 12:20:00,41.6,30.7,29.90,North,0,0.0,0.0,65,0.00,,,0.00,WUHU216HW,2013-01-08 17:20:00,
2013-01-08 12:25:00,41.8,30.9,29.90,North,0,0.0,0.0,65,0.00,,,0.00,WUHU216HW,2013-01-08 17:25:00,
2013-01-08 12:30:00,41.9,30.6,29.90,North,0,0.0,0.0,64,0.00,,,0.00,WUHU216HW,2013-01-08 17:30:00,
2013-01-08 12:35:00,42.1,30.8,29.90,North,0,0.0,0.0,64,0.00,,,0.00,WUHU216HW,2013-01-08 17:35:00,
2013-01-08 12:40:00,42.5,30.7,29.90,North,0,0.0,0.0,63,0.00,,,0.00,WUHU216HW,2013-01-08 17:40:00,
2013-01-08 12:45:00,42.5,30.0,29.90,North,0,0.0,0.0,61,0.00,,,0.00,WUHU216HW,2013-01-08 17:45:00,
2013-01-08 12:50:00,42.7,30.2,29.90,North,0,0.0,0.0,61,0.00,,,0.00,WUHU216HW,2013-01-08 17:50:00,
2013-01-08 12:55:00,42.8,30.2,29.90,North,0,0.0,0.0,61,0.00,,,0.00,WUHU216HW,2013-01-08 17:55:00,
2013-01-08 13:00:00,42.8,29.4,29.90,North,0,0.0,0.0,59,0.00,,,0.00,WUHU216HW,2013-01-08 18:00:00,
2013-01-08 13:05:00,42.8,29.0,29.89,North,0,0.0,0.0,58,0.00,,,0.00,WUHU216HW,2013-01-08 18:05:00,
2013-01-08 13:10:00,42.7,28.9,29.89,North,0,0.0,0.0,58,0.00,,,0.00,WUHU216HW,2013-01-08 18:10:00,
2013-01-08 13:15:00,42.5,27.8,29.89,North,0,0.0,0.0,56,0.00,,,0.00,WUHU216HW,2013-01-08 18:15:00,
2013-01-08 13:20:00,42.7,28.5,29.89,North,0,0.0,0.0,57,0.00,,,0.00,WUHU216HW,2013-01-08 18:20:00,
2013-01-08 13:25:00,42.5,26.9,29.89,North,0,0.0,0.0,54,0.00,,,0.00,WUHU216HW,2013-01-08 18:25:00,
2013-01-08 13:30:00,42.5,26.9,29.89,North,0,0.0,0.0,54,0.00,,,0.00,WUHU216HW,2013-01-08 18:30:00,
2013-01-08 13:35:00,42.5,26.6,29.89,North,0,0.0,0.0,53,0.00,,,0.00,WUHU216HW,2013-01-08 18:35:00,
2013-01-08 13:40:00,42.5,27.4,29.89,North,0,0.0,0.0,55,0.00,,,0.00,WUHU216HW,2013-01-08 18:40:00,
2013-01-08 13:45:00,42.5,27.4,29.89,North,0,0.0,0.0,55,0.00,,,0.00,WUHU216HW,2013-01-08 18:45:00,
2013-01-08 13:50:00,42.5,26.9,29.89,North,0,0.0,0.0,54,0.00,,,0.00,WUHU216HW,2013-01-08 18:50:00,
2013-01-08 13:55:00,42.3,25.9,29.90,North,0,0.0,0.0,52,0.00,,,0.00,WUHU216HW,2013-01-08 18:55:00,
2013-01-08 14:01:00,42.3,26.4,29.90,North,0,0.0,0.0,53,0.00,,,0.00,WUHU216HW,2013-01-08 19:01:00,
2013-01-08 14:06:00,42.5,27.4,29.90,North,0,0.0,0.0,55,0.00,,,0.00,WUHU216HW,2013-01-08 19:06:00,
2013-01-08 14:11:00,42.5,26.6,29.90,North,0,0.0,0.0,53,0.00,,,0.00,WUHU216HW,2013-01-08 19:11:00,
2013-01-08 14:16:00,42.7,27.1,29.90,North,0,0.0,0.0,54,0.00,,,0.00,WUHU216HW,2013-01-08 19:16:00,
2013-01-08 14:21:00,42.7,26.6,29.90,North,0,0.0,0.0,53,0.00,,,0.00,WUHU216HW,2013-01-08 19:21:00,
2013-01-08 14:26:00,42.8,26.8,29.90,North,0,0.0,0.0,53,0.00,,,0.00,WUHU216HW,2013-01-08 19:26:00,
2013-01-08 14:31:00,42.8,26.8,29.90,North,0,0.0,0.0,53,0.00,,,0.00,WUHU216HW,2013-01-08 19:31:00,
2013-01-08 14:36:00,43.0,27.0,29.90,North,0,0.0,0.0,53,0.00,,,0.00,WUHU216HW,2013-01-08 19:36:00,
2013-01-08 14:41:00,43.0,27.0,29.90,North,0,0.0,0.0,53,0.00,,,0.00,WUHU216HW,2013-01-08 19:41:00,
2013-01-08 14:46:00,43.2,27.2,29.91,North,0,0.0,0.0,53,0.00,,,0.00,WUHU216HW,2013-01-08 19:46:00,
2013-01-08 14:51:00,43.2,27.2,29.90,North,0,0.0,0.0,53,0.00,,,0.00,WUHU216HW,2013-01-08 19:51:00,
2013-01-08 14:56:00,43.4,27.4,29.90,North,0,0.0,0.0,53,0.00,,,0.00,WUHU216HW,2013-01-08 19:56:00,
2013-01-08 15:01:00,43.4,26.9,29.91,North,0,0.0,0.0,52,0.00,,,0.00,WUHU216HW,2013-01-08 20:01:00,
2013-01-08 15:07:00,43.4,27.4,29.91,North,0,0.0,0.0,53,0.00,,,0.00,WUHU216HW,2013-01-08 20:07:00,
2013-01-08 15:12:00,43.2,27.2,29.91,North,0,0.0,0.0,53,0.00,,,0.00,WUHU216HW,2013-01-08 20:12:00,
2013-01-08 15:17:00,43.0,27.0,29.91,North,0,0.0,0.0,53,0.00,,,0.00,WUHU216HW,2013-01-08 20:17:00,
2013-01-08 15:22:00,42.8,26.8,29.91,North,0,0.0,0.0,53,0.00,,,0.00,WUHU216HW,2013-01-08 20:22:00,
2013-01-08 15:27:00,42.7,26.6,29.91,North,0,0.0,0.0,53,0.00,,,0.00,WUHU216HW,2013-01-08 20:27:00,
2013-01-08 15:32:00,42.5,26.6,29.91,North,0,0.0,0.0,53,0.00,,,0.00,WUHU216HW,2013-01-08 20:32:00,
2013-01-08 15:37:00,42.3,26.7,29.91,North,0,0.0,0.0,54,0.00,,,0.00,WUHU216HW,2013-01-08 20:37:00,
2013-01-08 15:42:00,42.1,26.7,29.91,North,0,0.0,0.0,54,0.00,,,0.00,WUHU216HW,2013-01-08 20:42:00,
2013-01-08 15:47:00,41.8,26.3,29.91,North,0,0.0,0.0,54,0.00,,,0.00,WUHU216HW,2013-01-08 20:47:00,
2013-01-08 15:52:00,41.4,25.9,29.91,North,0,0.0,0.0,54,0.00,,,0.00,WUHU216HW,2013-01-08 20:52:00,
2013-01-08 15:57:00,41.0,26.0,29.91,North,0,0.0,0.0,55,0.00,,,0.00,WUHU216HW,2013-01-08 20:57:00,
2013-01-08 16:02:00,40.7,26.1,29.91,North,0,0.0,0.0,56,0.00,,,0.00,WUHU216HW,2013-01-08 21:02:00,
2013-01-08 16:07:00,40.0,25.4,29.91,North,0,0.0,0.0,56,0.00,,,0.00,WUHU216HW,2013-01-08 21:07:00,
2013-01-08 16:12:00,39.2,25.2,29.92,North,0,0.0,0.0,57,0.00,,,0.00,WUHU216HW,2013-01-08 21:12:00,
2013-01-08 16:17:00,38.7,25.1,29.92,North,0,0.0,0.0,58,0.00,,,0.00,WUHU216HW,2013-01-08 21:17:00,
2013-01-08 16:22:00,38.2,25.0,29.92,North,0,0.0,0.0,59,0.00,,,0.00,WUHU216HW,2013-01-08 21:22:00,
2013-01-08 16:27:00,37.8,24.8,29.92,North,0,0.0,0.0,59,0.00,,,0.00,WUHU216HW,2013-01-08 21:27:00,
2013-01-08 16:33:00,37.3,24.7,29.92,North,0,0.0,0.0,60,0.00,,,0.00,WUHU216HW,2013-01-08 21:33:00,
2013-01-08 16:38:00,36.7,24.2,29.92,North,0,0.0,0.0,60,0.00,,,0.00,WUHU216HW,2013-01-08 21:38:00,
2013-01-08 16:43:00,36.2,23.7,29.92,North,0,0.0,0.0,60,0.00,,,0.00,WUHU216HW,2013-01-08 21:43:00,
2013-01-08 16:48:00,36.0,23.6,29.92,North,0,0.0,0.0,60,0.00,,,0.00,WUHU216HW,2013-01-08 21:48:00,
2013-01-08 16:53:00,35.6,23.6,29.92,North,0,0.0,0.0,61,0.00,,,0.00,WUHU216HW,2013-01-08 21:53:00,
2013-01-08 16:58:00,35.3,23.2,29.92,North,0,0.0,0.0,61,0.00,,,0.00,WUHU216HW,2013-01-08 21:58:00,
2013-01-08 17:03:00,35.1,23.4,29.93,North,0,0.0,0.0,62,0.00,,,0.00,WUHU216HW,2013-01-08 22:03:00,
2013-01-08 17:08:00,34.9,23.2,29.93,North,0,0.0,0.0,62,0.00,,,0.00,WUHU216HW,2013-01-08 22:08:00,
2013-01-08 17:13:00,34.9,23.6,29.93,North,0,0.0,0.0,63,0.00,,,0.00,WUHU216HW,2013-01-08 22:13:00,
2013-01-08 17:18:00,34.7,23.4,29.94,North,0,0.0,0.0,63,0.00,,,0.00,WUHU216HW,2013-01-08 22:18:00,
2013-01-08 17:23:00,34.4,23.4,29.94,North,0,0.0,0.0,64,0.00,,,0.00,WUHU216HW,2013-01-08 22:23:00,
2013-01-08 17:28:00,34.0,23.0,29.94,North,0,0.0,0.0,64,0.00,,,0.00,WUHU216HW,2013-01-08 22:28:00,
2013-01-08 17:33:00,33.7,22.7,29.94,North,0,0.0,0.0,64,0.00,,,0.00,WUHU216HW,2013-01-08 22:33:00,
2013-01-08 17:38:00,33.3,22.4,29.94,North,0,0.0,0.0,64,0.00,,,0.00,WUHU216HW,2013-01-08 22:38:00,
2013-01-08 17:44:00,32.9,22.8,29.94,North,0,0.0,0.0,66,0.00,,,0.00,WUHU216HW,2013-01-08 22:44:00,
2013-01-08 17:49:00,32.4,22.3,29.95,North,0,0.0,0.0,66,0.00,,,0.00,WUHU216HW,2013-01-08 22:49:00,
2013-01-08 17:54:00,32.0,22.3,29.95,North,0,0.0,0.0,67,0.00,,,0.00,WUHU216HW,2013-01-08 22:54:00,
2013-01-08 17:59:00,31.7,21.6,29.95,North,0,0.0,0.0,66,0.00,,,0.00,WUHU216HW,2013-01-08 22:59:00,
2013-01-08 18:04:00,31.3,21.6,29.95,North,0,0.0,0.0,67,0.00,,,0.00,WUHU216HW,2013-01-08 23:04:00,
2013-01-08 18:09:00,31.1,21.4,29.95,North,0,0.0,0.0,67,0.00,,,0.00,WUHU216HW,2013-01-08 23:09:00,
2013-01-08 18:14:00,30.8,21.4,29.95,North,0,0.0,0.0,68,0.00,,,0.00,WUHU216HW,2013-01-08 23:14:00,
2013-01-08 18:19:00,30.6,21.6,29.96,North,0,0.0,0.0,69,0.00,,,0.00,WUHU216HW,2013-01-08 23:19:00,
2013-01-08 18:24:00,30.2,21.6,29.96,North,0,0.0,0.0,70,0.00,,,0.00,WUHU216HW,2013-01-08 23:24:00,
2013-01-08 18:29:00,29.9,21.2,29.97,North,0,0.0,0.0,70,0.00,,,0.00,WUHU216HW,2013-01-08 23:29:00,
2013-01-08 18:34:00,29.9,21.2,29.97,North,0,0.0,0.0,70,0.00,,,0.00,WUHU216HW,2013-01-08 23:34:00,
2013-01-08 18:39:00,29.5,21.2,29.97,North,0,0.0,0.0,71,0.00,,,0.00,WUHU216HW,2013-01-08 23:39:00,
2013-01-08 18:44:00,29.2,21.2,29.97,North,0,0.0,0.0,72,0.00,,,0.00,WUHU216HW,2013-01-08 23:44:00,
2013-01-08 18:49:00,29.0,21.4,29.97,North,0,0.0,0.0,73,0.00,,,0.00,WUHU216HW,2013-01-08 23:49:00,
2013-01-08 18:54:00,28.8,20.9,29.97,North,0,0.0,0.0,72,0.00,,,0.00,WUHU216HW,2013-01-08 23:54:00,
2013-01-08 18:59:00,28.6,21.1,29.98,North,0,0.0,0.0,73,0.00,,,0.00,WUHU216HW,2013-01-08 23:59:00,
2013-01-08 19:04:00,28.4,20.9,29.98,North,0,0.0,0.0,73,0.00,,,0.00,WUHU216HW,2013-01-09 00:04:00,
2013-01-08 19:09:00,28.4,20.9,29.98,North,0,0.0,0.0,73,0.00,,,0.00,WUHU216HW,2013-01-09 00:09:00,
2013-01-08 19:14:00,28.3,21.1,29.98,North,0,0.0,0.0,74,0.00,,,0.00,WUHU216HW,2013-01-09 00:14:00,
2013-01-08 19:19:00,27.9,20.7,29.98,North,0,0.0,0.0,74,0.00,,,0.00,WUHU216HW,2013-01-09 00:19:00,
2013-01-08 19:24:00,27.7,20.8,29.99,North,0,0.0,0.0,75,0.00,,,0.00,WUHU216HW,2013-01-09 00:24:00,
2013-01-08 19:29:00,27.7,21.1,29.99,North,0,0.0,0.0,76,0.00,,,0.00,WUHU216HW,2013-01-09 00:29:00,
2013-01-08 19:35:00,27.5,20.6,29.99,North,0,0.0,0.0,75,0.00,,,0.00,WUHU216HW,2013-01-09 00:35:00,
2013-01-08 19:40:00,27.4,20.4,30.00,North,0,0.0,0.0,75,0.00,,,0.00,WUHU216HW,2013-01-09 00:40:00,
2013-01-08 19:45:00,27.4,20.4,29.99,North,0,0.0,0.0,75,0.00,,,0.00,WUHU216HW,2013-01-09 00:45:00,
2013-01-08 19:50:00,27.4,20.4,30.00,North,0,0.0,0.0,75,0.00,,,0.00,WUHU216HW,2013-01-09 00:50:00,
2013-01-08 19:55:00,27.2,20.3,30.00,North,0,0.0,0.0,75,0.00,,,0.00,WUHU216HW,2013-01-09 00:55:00,
2013-01-08 20:00:00,27.0,20.3,30.00,North,0,0.0,0.0,76,0.00,,,0.00,WUHU216HW,2013-01-09 01:00:00,
2013-01-08 20:05:00,27.0,20.1,30.00,North,0,0.0,0.0,75,0.00,,,0.00,WUHU216HW,2013-01-09 01:05:00,
2013-01-08 20:10:00,26.8,19.9,30.00,North,0,0.0,0.0,75,0.00,,,0.00,WUHU216HW,2013-01-09 01:10:00,
2013-01-08 20:15:00,26.6,19.7,30.00,North,0,0.0,0.0,75,0.00,,,0.00,WUHU216HW,2013-01-09 01:15:00,
2013-01-08 20:20:00,26.6,19.7,30.00,North,0,0.0,0.0,75,0.00,,,0.00,WUHU216HW,2013-01-09 01:20:00,
2013-01-08 20:25:00,26.5,19.9,30.00,North,0,0.0,0.0,76,0.00,,,0.00,WUHU216HW,2013-01-09 01:25:00,
2013-01-08 20:30:00,26.3,19.7,30.00,North,0,0.0,0.0,76,0.00,,,0.00,WUHU216HW,2013-01-09 01:30:00,
2013-01-08 20:35:00,26.3,19.7,30.00,North,0,0.0,0.0,76,0.00,,,0.00,WUHU216HW,2013-01-09 01:35:00,
2013-01-08 20:40:00,26.3,19.7,30.00,North,0,0.0,0.0,76,0.00,,,0.00,WUHU216HW,2013-01-09 01:40:00,
2013-01-08 20:45:00,26.1,19.8,30.00,North,0,0.0,0.0,77,0.00,,,0.00,WUHU216HW,2013-01-09 01:45:00,
2013-01-08 20:51:00,25.9,19.6,30.00,North,0,0.0,0.0,77,0.00,,,0.00,WUHU216HW,2013-01-09 01:51:00,
2013-01-08 20:56:00,25.9,19.6,30.00,North,0,0.0,0.0,77,0.00,,,0.00,WUHU216HW,2013-01-09 01:56:00,
2013-01-08 21:01:00,25.7,19.8,30.00,North,0,0.0,0.0,78,0.00,,,0.00,WUHU216HW,2013-01-09 02:01:00,
2013-01-08 21:06:00,25.7,20.1,29.99,North,0,0.0,0.0,79,0.00,,,0.00,WUHU216HW,2013-01-09 02:06:00,
2013-01-08 21:11:00,25.6,20.0,30.00,North,0,0.0,0.0,79,0.00,,,0.00,WUHU216HW,2013-01-09 02:11:00,
2013-01-08 21:16:00,25.6,19.6,29.99,North,0,0.0,0.0,78,0.00,,,0.00,WUHU216HW,2013-01-09 02:16:00,
2013-01-08 21:21:00,25.6,20.0,30.00,North,0,0.0,0.0,79,0.00,,,0.00,WUHU216HW,2013-01-09 02:21:00,
2013-01-08 21:26:00,25.6,20.0,29.99,North,0,0.0,0.0,79,0.00,,,0.00,WUHU216HW,2013-01-09 02:26:00,
2013-01-08 21:31:00,25.4,19.4,30.00,North,0,0.0,0.0,78,0.00,,,0.00,WUHU216HW,2013-01-09 02:31:00,
2013-01-08 21:36:00,25.4,19.4,30.00,North,0,0.0,0.0,78,0.00,,,0.00,WUHU216HW,2013-01-09 02:36:00,
2013-01-08 21:41:00,25.2,19.3,30.00,North,0,0.0,0.0,78,0.00,,,0.00,WUHU216HW,2013-01-09 02:41:00,
2013-01-08 21:46:00,25.2,19.3,30.00,North,0,0.0,0.0,78,0.00,,,0.00,WUHU216HW,2013-01-09 02:46:00,
2013-01-08 21:52:00,25.2,20.0,30.00,North,0,0.0,0.0,80,0.00,,,0.00,WUHU216HW,2013-01-09 02:52:00,
2013-01-08 21:57:00,25.2,20.0,30.00,North,0,0.0,0.0,80,0.00,,,0.00,WUHU216HW,2013-01-09 02:57:00,
2013-01-08 22:02:00,25.2,19.6,30.00,North,0,0.0,0.0,79,0.00,,,0.00,WUHU216HW,2013-01-09 03:02:00,
2013-01-08 22:07:00,25.0,19.4,30.00,North,0,0.0,0.0,79,0.00,,,0.00,WUHU216HW,2013-01-09 03:07:00,
2013-01-08 22:12:00,25.0,19.4,30.00,North,0,0.0,0.0,79,0.00,,,0.00,WUHU216HW,2013-01-09 03:12:00,
2013-01-08 22:17:00,24.8,19.3,30.01,North,0,0.0,0.0,79,0.00,,,0.00,WUHU216HW,2013-01-09 03:17:00,
2013-01-08 22:22:00,24.8,19.3,30.00,North,0,0.0,0.0,79,0.00,,,0.00,WUHU216HW,2013-01-09 03:22:00,
2013-01-08 22:27:00,24.8,19.3,30.01,North,0,0.0,0.0,79,0.00,,,0.00,WUHU216HW,2013-01-09 03:27:00,
2013-01-08 22:32:00,24.8,19.3,30.01,North,0,0.0,0.0,79,0.00,,,0.00,WUHU216HW,2013-01-09 03:32:00,
2013-01-08 22:37:00,24.8,19.3,30.01,North,0,0.0,0.0,79,0.00,,,0.00,WUHU216HW,2013-01-09 03:37:00,
2013-01-08 22:42:00,24.7,19.1,30.01,North,0,0.0,0.0,79,0.00,,,0.00,WUHU216HW,2013-01-09 03:42:00,
2013-01-08 22:47:00,24.8,19.6,30.01,North,0,0.0,0.0,80,0.00,,,0.00,WUHU216HW,2013-01-09 03:47:00,
2013-01-08 22:52:00,24.7,19.4,30.01,North,0,0.0,0.0,80,0.00,,,0.00,WUHU216HW,2013-01-09 03:52:00,
2013-01-08 22:57:00,24.8,19.6,30.01,North,0,0.0,0.0,80,0.00,,,0.00,WUHU216HW,2013-01-09 03:57:00,
2013-01-08 23:02:00,24.8,19.6,30.01,North,0,0.0,0.0,80,0.00,,,0.00,WUHU216HW,2013-01-09 04:02:00,
2013-01-08 23:07:00,24.8,19.6,30.01,North,0,0.0,0.0,80,0.00,,,0.00,WUHU216HW,2013-01-09 04:07:00,
2013-01-08 23:12:00,24.8,19.9,30.01,North,0,0.0,0.0,81,0.00,,,0.00,WUHU216HW,2013-01-09 04:12:00,
2013-01-08 23:17:00,24.8,19.6,30.01,North,0,0.0,0.0,80,0.00,,,0.00,WUHU216HW,2013-01-09 04:17:00,
2013-01-08 23:22:00,24.8,19.6,30.01,North,0,0.0,0.0,80,0.00,,,0.00,WUHU216HW,2013-01-09 04:22:00,
2013-01-08 23:27:00,24.8,19.6,30.01,North,0,0.0,0.0,80,0.00,,,0.00,WUHU216HW,2013-01-09 04:27:00,
2013-01-08 23:32:00,24.8,19.9,30.02,North,0,0.0,0.0,81,0.00,,,0.00,WUHU216HW,2013-01-09 04:32:00,
2013-01-08 23:37:00,24.8,19.6,30.02,North,0,0.0,0.0,80,0.00,,,0.00,WUHU216HW,2013-01-09 04:37:00,
2013-01-08 23:42:00,24.8,19.9,30.02,North,0,0.0,0.0,81,0.00,,,0.00,WUHU216HW,2013-01-09 04:42:00,
2013-01-08 23:48:00,24.7,19.7,30.02,North,0,0.0,0.0,81,0.00,,,0.00,WUHU216HW,2013-01-09 04:48:00,
2013-01-08 23:53:00,24.7,19.7,30.02,North,0,0.0,0.0,81,0.00,,,0.00,WUHU216HW,2013-01-09 04:53:00,
2013-01-08 23:58:00,24.7,19.7,30.02,North,0,0.0,0.0,81,0.00,,,0.00,WUHU216HW,2013-01-09 04:58:00,